Regional Weather Roundup
Issued by NWS

Home | Current Version | Previous Version | Text Only | Print | Product List | Glossary Off
Versions: 1 2 3 4 5 6 7 8 9 10 11 12 13 14 15 16 17 18 19 20 21 22 23 24 25 26 27 28 29 30 31 32 33 34 35 36 37 38 39 40 41 42 43 44 45 46 47 48 49 50

000
ASUS45 KABQ 100201
RWRNM
NEW MEXICO REGIONAL WEATHER ROUNDUP
NATIONAL WEATHER SERVICE ALBUQUERQUE NM
700 PM MST FRI DEC 09 2016

NOTE: "FAIR" MEANS FEW OR NO CLOUDS BELOW 12,000 FEET AGL WITH NO
       SIGNIFICANT WEATHER OR OBSTRUCTIONS TO VISION.

      THIS PRODUCT IS RELEASED AS TWO VERSIONS.  ONE VERSION NEAR
      THE TOP OF THE HOUR CONTAINING PRELIMINARY DATA FROM ALBUQUERQUE
      AND OTHER STATIONS.  A FINAL VERSION WITH ADDITIONAL DATA IS
      ISSUED ABOUT 10 MINUTES AFTER THE HOUR.

NMZ501-503-504-510>518-100300-
NORTHWEST PLATEAU/NORTHCENTRAL MOUNTAINS

CITY           SKY/WX    TMP DP  RH WIND       PRES   REMARKS
FARMINGTON     FAIR      33  22  63 NE6       30.26R WCI  28
LOS ALAMOS     FAIR      40  22  48 W5        30.30R
SANTA FE       FAIR      31  22  69 NW5       30.28R WCI  26
TAOS           FAIR      28  16  59 CALM      30.29R
ANGEL FIRE     FAIR      25  19  78 SE6       30.29S WCI  18

$$
NMZ402-403-502-505>509-100300-
WESTCENTRAL MOUNTAINS/SOUTHWEST MOUNTAINS

CITY           SKY/WX    TMP DP  RH WIND       PRES   REMARKS
GALLUP         FAIR      33  25  72 CALM      30.28S
GRANTS         FAIR      32  23  71 CALM      30.31R
SILVER CITY    FAIR      37  31  77 CALM      30.29S

$$
NMZ407-409-411-412-100300-
SOUTHERN DESERTS

CITY           SKY/WX    TMP DP  RH WIND       PRES   REMARKS
DEMING         FAIR      40  32  73 W6        30.29R
LAS CRUCES     FAIR      39  29  68 SE6       30.30S WCI  35
HOLLOMAN AFB   FAIR      33  23  66 NE7       30.34S WCI  27
T OR C         FAIR      42  28  57 CALM      30.28R

$$
NMZ519>523-100300-
CENTRAL VALLEYS/CENTRAL HIGHLANDS

CITY           SKY/WX    TMP DP  RH WIND       PRES   REMARKS
ALBUQUERQUE    FAIR      36  25  64 E8        30.30R WCI  30
DOUBLE EAGLE   PTCLDY    28  19  69 SW10      30.30R WCI  19
CLINES CORNERS FAIR      31  21  66 NW12      30.28R WCI  22
BELEN          FAIR      40  26  56 CALM      30.30R
SOCORRO        FAIR      37  27  65 S5        30.28S WCI  34

$$
NMZ524>526-539-540-100300-
SOUTHCENTRAL MOUNTAINS

CITY           SKY/WX    TMP DP  RH WIND       PRES   REMARKS
RUIDOSO        FAIR      37  25  60 CALM      30.31S

$$
NMZ527>531-100300-
NORTHEAST HIGHLANDS/NORTHEAST PLAINS

CITY           SKY/WX    TMP DP  RH WIND       PRES   REMARKS
LAS VEGAS      FAIR      36  20  52 SE5       30.21R WCI  32
RATON          FAIR      34  19  54 NE8       30.17R WCI  27
CLAYTON        FAIR      36  28  73 S5        30.17R WCI  32

$$
NMZ532>537-100300-
EASTCENTRAL PLAINS

CITY           SKY/WX    TMP DP  RH WIND       PRES   REMARKS
TUCUMCARI      FAIR      42  29  59 SW7       30.14R
CANNON AFB     FAIR      32  31  97 SW7       30.20R WCI  25
CLOVIS AIRPORT FAIR      36  27  69 SW8       30.21R WCI  29

$$
NMZ028-029-538-100300-
SOUTHEAST PLAINS

CITY           SKY/WX    TMP DP  RH WIND       PRES   REMARKS
ROSWELL        FAIR      28  25  88 SW6       30.24S WCI  22
ARTESIA        FAIR      30  30 100 CALM      30.26S
CARLSBAD       NOT AVBL


$$



USA.gov is the U.S. government's official web portal to all federal, state and local government web resources and services.